STARLINK-11624, 63105

Orbit data source: Space-Track

STARLINK-11624, 63105 is a payload satellite owned by SpaceX/Seattle (US) in LEO that was launched on Thu, 27 Feb 2025 UTC via an FALCON 9 launch vehicle from the Air Force Eastern Test Range (AFETR). Payload-class satellites include a variety of spacecraft equipped with specific instruments for various scientific and technological missions. These include communications satellites like Starlink; space stations such as the ISS; scientific satellites like the Hubble; Earth observation satellites from companies like Planet Labs, Umbra, and HawkEye 360; GPS; miniature CubeSats for education and research; and military/defense satellites.

Loading next visibility...
Identifier
63105, 2025-039B
Orbit
LEO
Country
Flag of USUS
Related business
Manufacturer
SpaceX/Seattle
Mission
Operational Commercial Communications
Bus & Motor
STARLINK V2MD, Unknown motor
Mass
960 kg wet, ~910 kg dry
Launch date (UTC)
2025-02-27 (2 years ago)
Launch vehicle
FALCON 9
Launch site
Air Force Eastern Test Range (AFETR)
Object type
Payload
Rocket body
Debris
Shape & HBR
Box + 2 Pan, 18.1 m
Radar Cross Section
36.964 m², Large (>1 m²)

Expand to show TLE details & history
Last TLE update: 1 day ago

TLE from 1 day ago
0 STARLINK-11624
1 63105U 25039B   26252.58747320  .00123564  00000-0  95183-3 0  9997
2 63105  43.0005 208.7436 0001553 274.6485  85.4205 15.70849369 88539
Epoch: 2026-09-09T14:05Z
TLE epoch observation values (Epoch: 2026-09-09T14:05:57.684Z)
Latitude
-0.00004°
Longitude
8.61582°
Altitude
356.156 km
Speed
7.697 km/s
True Right ascension
13h 54m 58s
True Declination
0° 00' 00"
Sunlit
Object was in daylight at epoch
Visualization orbit readout
Latitude
Unknown
Longitude
Unknown
Altitude
Unknown
Speed
Unknown
Apparent Right ascension
Unknown
Apparent Declination
Unknown
Sunlit
N/A
Visualization observer readout
Local Sidereal Time
17:45:36
Azimuth
Unknown
Elevation
Unknown
Doppler factor
Unknown
Orbital elements
Apogee altitude
359.496 km
Perigee altitude
357.404 km
Semi-major axis
6,736.587 km
Eccentricity
0.00016
Inclination
43.0005°
RAAN
208.7436°
Arg. of periapsis
274.6485°
True anomaly
85.43824°
Mean anomaly
85.4205°
Eccentric anomaly
85.42937°
Mean motion
3.92539 °/min
Orbital period
91.71 mins
BSTAR
0.00095183
Loading maneuver chart data...
Computing Atmospheric mass density...
Loading historical data...
Loading historical data...
Loading historical data...
Loading historical data...
Loading historical data...
Loading historical data...
Loading historical data...

Documentation

Showing up to 5 results
|